DW3072 Weather Reports


time (UTC)temp
C
wind
direction
speed
KPH
gust
KPH
rain 1hr
cm
rain 24hr
cm
rain mn
cm
humidity
%
barometer
mb
20260506103555 17 255 3.2 6.4 0.00 0.00 0.00 77 1007.0
20260506102034 17 303 3.2 11.3 0.00 0.00 0.00 76 1006.9
20260506100535 17 255 3.2 8.0 0.00 0.00 0.00 75 1006.8
20260506095048 17 263 1.6 8.0 0.00 0.03 0.00 75 1007.1
20260506093545 17 38 3.2 12.9 0.00 0.03 0.00 75 1007.0
20260506092039 17 259 3.2 8.0 0.00 0.03 0.00 74 1007.0
20260506090534 17 269 0.0 11.3 0.00 0.03 0.00 74 1006.9
20260506085028 17 238 1.6 4.8 0.00 0.05 0.00 73 1007.2
20260506083558 17 278 1.6 4.8 0.00 0.05 0.00 73 1007.2
20260506082029 17 263 0.0 11.3 0.00 0.05 0.00 73 1007.3
20260506080600 16 228 0.0 4.8 0.00 0.05 0.00 73 1007.1
20260506072039 17 255 0.0 0.0 0.00 0.05 0.00 72 1007.5
20260506070538 17 255 0.0 0.0 0.00 0.05 0.00 70 1007.6
20260506062042 17 236 1.6 4.8 0.00 0.05 0.00 69 1007.8
20260506060538 17 244 1.6 3.2 0.00 0.05 0.00 68 1008.0
20260506050546 18 258 1.6 12.9 0.00 0.05 0.00 66 1008.2
20260506045040 18 228 3.2 6.4 0.00 0.05 0.00 65 1008.5
20260506043538 18 253 1.6 6.4 0.00 0.05 0.00 65 1008.3
20260506042032 18 212 1.6 6.4 0.00 0.05 0.00 64 1008.3
20260506040531 18 250 3.2 12.9 0.00 0.05 0.00 63 1008.3
20260506035045 19 243 1.6 16.1 0.00 0.05 0.05 61 1008.3
20260506033539 19 198 4.8 11.3 0.00 0.05 0.05 59 1008.3
20260506032029 19 211 4.8 11.3 0.00 0.05 0.05 60 1008.1
20260506030526 20 257 3.2 6.4 0.00 0.05 0.05 58 1008.2
20260506025030 20 251 3.2 9.7 0.00 0.05 0.05 57 1008.2
20260506023540 20 234 4.8 14.5 0.00 0.05 0.05 57 1008.2
20260506022034 20 269 4.8 14.5 0.00 0.05 0.05 56 1008.2
20260506020534 20 240 1.6 8.0 0.00 0.05 0.05 54 1008.2
20260506015045 21 231 0.0 6.4 0.00 0.05 0.05 54 1008.2
20260506013605 21 141 1.6 6.4 0.00 0.05 0.05 53 1007.9
20260506012040 21 209 3.2 12.9 0.00 0.05 0.05 53 1007.7
20260506010545 21 257 4.8 12.9 0.00 0.05 0.05 53 1007.5
20260506005103 21 268 3.2 14.5 0.00 0.05 0.05 53 1007.4
20260506003541 22 314 1.6 8.0 0.00 0.05 0.05 51 1007.3
20260506002045 22 284 1.6 8.0 0.00 0.05 0.05 49 1007.1
20260506000533 23 288 4.8 12.9 0.00 0.05 0.05 47 1007.0
20260505235045 23 215 3.2 8.0 0.00 0.05 0.05 48 1006.9
20260505233527 23 257 3.2 8.0 0.00 0.05 0.05 46 1006.7
20260505232053 24 266 3.2 12.9 0.00 0.05 0.05 46 1006.8
20260505230554 24 257 4.8 14.5 0.00 0.05 0.05 44 1006.7
20260505225044 25 265 8.0 12.9 0.00 0.05 0.05 43 1006.4
20260505223542 25 247 3.2 11.3 0.00 0.05 0.05 45 1006.4
20260505222041 25 280 3.2 11.3 0.00 0.05 0.05 46 1006.3
20260505220543 25 26 6.4 20.9 0.00 0.05 0.05 42 1006.1
20260505215040 25 116 8.0 17.7 0.00 0.05 0.05 41 1006.2
20260505213539 26 243 6.4 17.7 0.00 0.05 0.05 41 1006.1
20260505212042 26 232 11.3 19.3 0.00 0.05 0.05 40 1006.0
20260505210541 26 297 4.8 25.7 0.00 0.05 0.05 40 1006.1
20260505205053 26 141 8.0 24.1 0.00 0.05 0.05 41 1005.9
20260505203554 27 112 4.8 20.9 0.00 0.05 0.05 40 1005.8
20260505202032 27 115 4.8 17.7 0.00 0.05 0.05 39 1005.8
20260505200558 27 278 3.2 17.7 0.00 0.05 0.05 35 1005.9
20260505195115 27 254 9.7 17.7 0.00 0.05 0.05 33 1006.1
20260505193553 27 339 4.8 22.5 0.00 0.05 0.05 34 1006.1
20260505192034 27 218 11.3 22.5 0.00 0.05 0.05 34 1006.4
20260505190538 27 259 6.4 27.4 0.00 0.05 0.05 34 1006.5
20260505185030 27 340 8.0 25.7 0.00 0.05 0.05 35 1006.6
20260505183554 27 292 8.0 20.9 0.00 0.05 0.05 32 1007.0
20260505182052 27 270 8.0 29.0 0.00 0.05 0.05 37 1006.9
20260505180556 27 346 4.8 29.0 0.00 0.05 0.05 38 1007.3
20260505175036 27 295 8.0 16.1 0.00 0.05 0.05 44 1007.6
20260505173534 27 136 6.4 17.7 0.00 0.05 0.05 44 1007.6
20260505172035 27 217 4.8 17.7 0.00 0.05 0.05 46 1007.7
20260505170537 26 285 3.2 17.7 0.00 0.05 0.05 46 1007.8
20260505165113 26 76 6.4 16.1 0.00 0.05 0.05 48 1008.1
20260505163549 26 258 12.9 20.9 0.00 0.05 0.05 48 1008.1
20260505162046 25 254 4.8 16.1 0.00 0.05 0.05 47 1008.3
20260505160541 25 253 9.7 20.9 0.00 0.05 0.05 51 1008.5
20260505152042 24 259 3.2 17.7 0.00 0.05 0.05 52 1008.8
20260505150535 24 236 3.2 12.9 0.00 0.05 0.05 55 1009.0
20260505140550 22 330 3.2 11.3 0.00 0.05 0.05 63 1009.7
20260505123543 15 315 4.8 8.0 0.00 0.05 0.05 90 1009.6
20260505122043 14 262 1.6 4.8 0.00 0.05 0.05 94 1009.6
20260505120544 13 207 1.6 6.4 0.00 0.05 0.05 95 1009.7
20260505115037 13 341 0.0 4.8 0.00 0.05 0.05 95 1009.4
20260505113535 12 182 0.0 0.0 0.00 0.05 0.05 95 1009.2
20260505112100 11 181 0.0 0.0 0.00 0.05 0.05 94 1009.3
20260505110610 11 181 0.0 0.0 0.00 0.05 0.05 93 1009.2